Weather History for KCMX - December, 2012

Change the Weather History Date:

Saturday, December 15, 2012

  Actual Average Record
Temperature  
Mean Temperature 32 °F -  
Max Temperature 36 °F 27 °F 46 °F (1998)
Min Temperature 27 °F 17 °F -7 °F (2010)
Degree Days  
Heating Degree Days 34    
Moisture  
Dew Point 32 °F    
Average Humidity 93    
Maximum Humidity 100    
Minimum Humidity 88    
Precipitation  
Precipitation 0.10 in - - ()
Sea Level Pressure  
Sea Level Pressure 29.80 in    
Wind  
Wind Speed 12 mph (ESE)    
Max Wind Speed 16 mph    
Max Gust Speed 24 mph    
Visibility 6 miles    
Events Rain    
Averages and records for this station are not official NWS values.
T = Trace of Precipitation, MM = Missing Value Source: NWS Daily Summary

Daily Weather History Graph

Daily Weather History Graph

Search for Another Location

Airport or City:

Trip Planner

Search our weather history database for the weather conditions in past years. The results will help you decide how hot, cold, wet, or windy it might be!

Date:

Astronomy

Dec. 15, 2012 Rise Set
Actual Time 8:34 AM EST 5:04 PM EST
Civil Twilight 7:58 AM EST 5:40 PM EST
Nautical Twilight 7:19 AM EST 6:19 PM EST
Astronomical Twilight 6:42 AM EST 6:56 PM EST
Moon 10:19 AM EST (12/15) 8:17 PM EST (12/15)
Length of Visible Light 9h 41m
Length of Day
8h 30m
Waxing Crescent, 8% of the Moon is Illuminated
Dec 15
Waxing Crescent
Dec 20
First Quarter
Dec 28
Full
Jan 4
Last Quarter
Jan 11
New

Hourly Weather History & Observations

Time (EST) Temp. Windchill Dew Point Humidity Pressure Visibility Wind Dir Wind Speed Gust Speed Precip Events Conditions
12:53 AM 27.0 °F 16.7 °F 24.1 °F 89% 30.09 in 10.0 mi ESE 11.5 mph - N/A   Overcast
1:53 AM 28.0 °F 18.6 °F 25.0 °F 88% 30.07 in 10.0 mi SE 10.4 mph - N/A   Overcast
2:53 AM 27.0 °F 16.7 °F 24.1 °F 89% 30.05 in 10.0 mi ESE 11.5 mph - N/A   Scattered Clouds
3:53 AM 28.0 °F 18.1 °F 26.1 °F 92% 30.02 in 10.0 mi ESE 11.5 mph - N/A   Clear
4:53 AM 28.9 °F 19.2 °F 27.0 °F 92% 29.99 in 10.0 mi East 11.5 mph - N/A   Clear
5:53 AM 30.0 °F 21.1 °F 28.9 °F 96% 29.96 in 9.0 mi East 10.4 mph - N/A   Clear
6:53 AM 30.9 °F 22.2 °F 30.0 °F 96% 29.94 in 7.0 mi East 10.4 mph - N/A   Partly Cloudy
7:53 AM 32.0 °F 23.0 °F 30.9 °F 96% 29.94 in 4.0 mi East 11.5 mph - N/A   Clear
8:53 AM 33.1 °F 24.4 °F 32.0 °F 96% 29.91 in 2.5 mi East 11.5 mph - N/A   Clear
9:04 AM 33.8 °F 24.8 °F 32.0 °F 93% 29.86 in 2.5 mi East 12.7 mph - N/A   Partly Cloudy
9:38 AM 33.8 °F 24.8 °F 32.0 °F 93% 29.85 in 3.0 mi East 12.7 mph - N/A   Partly Cloudy
9:53 AM 34.0 °F 24.6 °F 32.0 °F 92% 29.89 in 4.0 mi East 13.8 mph - N/A   Clear
10:21 AM 33.8 °F 24.3 °F 32.0 °F 93% 29.83 in 4.0 mi ESE 13.8 mph - N/A   Partly Cloudy
10:40 AM 33.8 °F 24.3 °F 33.8 °F 100% 29.82 in 4.0 mi ESE 13.8 mph 23.0 mph N/A   Mostly Cloudy
10:53 AM 35.1 °F 25.9 °F 33.1 °F 92% 29.86 in 4.0 mi ESE 13.8 mph - N/A   Mostly Cloudy
11:02 AM 35.6 °F 26.6 °F 33.8 °F 93% 29.82 in 4.0 mi ESE 13.8 mph 23.0 mph N/A   Scattered Clouds
11:53 AM 35.1 °F 25.9 °F 33.1 °F 92% 29.83 in 5.0 mi East 13.8 mph - N/A   Partly Cloudy
12:53 PM 36.0 °F 27.5 °F 33.1 °F 89% 29.80 in 6.0 mi ESE 12.7 mph 19.6 mph 0.00 in   Overcast
1:53 PM 36.0 °F 26.7 °F 33.1 °F 89% 29.77 in 7.0 mi ESE 15.0 mph 24.2 mph N/A   Mostly Cloudy
2:14 PM 35.6 °F 26.2 °F 33.8 °F 93% 29.72 in 7.0 mi ESE 15.0 mph 24.2 mph 0.00 in Rain Light Rain
2:53 PM 36.0 °F 26.7 °F 34.0 °F 93% 29.73 in 4.0 mi ESE 15.0 mph 23.0 mph 0.01 in Rain Light Rain
3:04 PM 35.6 °F 26.2 °F 33.8 °F 93% 29.69 in 5.0 mi ESE 15.0 mph - 0.00 in Rain Light Rain
3:36 PM 35.6 °F 27.1 °F 33.8 °F 93% 29.68 in 4.0 mi East 12.7 mph - 0.00 in   Overcast
3:43 PM 35.6 °F 27.1 °F 33.8 °F 93% 29.67 in 4.0 mi East 12.7 mph - 0.00 in   Overcast
3:51 PM 35.6 °F 27.1 °F 33.8 °F 93% 29.67 in 4.0 mi East 12.7 mph - 0.00 in   Overcast
3:53 PM 36.0 °F 27.5 °F 34.0 °F 93% 29.71 in 4.0 mi ESE 12.7 mph - 0.00 in   Overcast
4:53 PM 36.0 °F 26.3 °F 34.0 °F 93% 29.70 in 5.0 mi ESE 16.1 mph 21.9 mph 0.00 in Rain Light Rain
5:44 PM 35.6 °F 27.5 °F 33.8 °F 93% 29.65 in 4.0 mi ESE 11.5 mph 19.6 mph 0.01 in Rain Light Rain
5:53 PM 36.0 °F 27.5 °F 34.0 °F 93% 29.69 in 4.0 mi ESE 12.7 mph - 0.01 in Rain Light Rain
6:53 PM 36.0 °F 27.5 °F 34.0 °F 93% 29.68 in 5.0 mi East 12.7 mph 18.4 mph 0.03 in Rain Light Rain
7:53 PM 35.1 °F 27.9 °F 34.0 °F 96% 29.67 in 4.0 mi East 9.2 mph 21.9 mph 0.03 in Rain Light Rain
8:53 PM 35.1 °F 26.4 °F 35.1 °F 100% 29.64 in 4.0 mi East 12.7 mph - 0.01 in Rain Light Rain
9:53 PM 35.1 °F 26.9 °F 34.0 °F 96% 29.61 in 6.0 mi East 11.5 mph - 0.01 in   Overcast
10:53 PM 35.1 °F 28.6 °F 34.0 °F 96% 29.60 in 5.0 mi East 8.1 mph - N/A   Overcast
11:53 PM 34.0 °F 26.6 °F 34.0 °F 100% 29.58 in 8.0 mi East 9.2 mph - 0.00 in   Overcast